Hourly Weather Kozlivka

Today, 20 October, Tuesday

Time Temperature Precipitation Wind Pressure Humidity
00:00 +6°C° 0 mm 2 mps 750 mmHg 80%
01:00 +6°C° 0 mm 2 mps 750 mmHg 81%
02:00 +5°C° 0 mm 2 mps 750 mmHg 82%
03:00 +5°C° 0 mm 2 mps 750 mmHg 82%
04:00 +5°C° 0 mm 2 mps 750 mmHg 83%
05:00 +5°C° 0 mm 2 mps 750 mmHg 83%
06:00 +5°C° 0 mm 2 mps 751 mmHg 80%
07:00 +6°C° 0 mm 2 mps 751 mmHg 78%
08:00 +7°C° 0 mm 2 mps 751 mmHg 76%
09:00 +8°C° 0 mm 2 mps 751 mmHg 69%
10:00 +10°C° 0 mm 3 mps 751 mmHg 62%
11:00 +11°C° 0 mm 3 mps 751 mmHg 55%
12:00 +12°C° 0 mm 3 mps 751 mmHg 53%
13:00 +12°C° 0 mm 3 mps 751 mmHg 51%
14:00 +13°C° 0 mm 3 mps 751 mmHg 48%
15:00 +12°C° 0 mm 3 mps 751 mmHg 52%
16:00 +12°C° 0 mm 2 mps 751 mmHg 55%
17:00 +11°C° 0 mm 1 mps 751 mmHg 58%
18:00 +11°C° 0 mm 1 mps 751 mmHg 60%
19:00 +10°C° 0 mm 1 mps 751 mmHg 61%
20:00 +8°C° 0 mm 0 mps 751 mmHg 63%
21:00 +9°C° 0 mm 1 mps 751 mmHg 64%
22:00 +9°C° 0 mm 1 mps 751 mmHg 64%
23:00 +9°C° 0 mm 1 mps 751 mmHg 65%

Tomorrow, 21 October, Wednesday

Time Temperature Precipitation Wind Pressure Humidity
00:00 +8°C° 0 mm 1 mps 751 mmHg 66%
01:00 +7°C° 0 mm 2 mps 751 mmHg 67%
02:00 +7°C° 0 mm 2 mps 751 mmHg 68%
03:00 +5°C° 0 mm 3 mps 750 mmHg 69%
04:00 +5°C° 0 mm 3 mps 750 mmHg 70%
05:00 +5°C° 0 mm 3 mps 750 mmHg 71%
06:00 +6°C° 0 mm 4 mps 749 mmHg 69%
07:00 +6°C° 0 mm 4 mps 749 mmHg 66%
08:00 +7°C° 0 mm 5 mps 749 mmHg 64%
09:00 +8°C° 0 mm 6 mps 749 mmHg 63%
10:00 +10°C° 0 mm 6 mps 748 mmHg 61%
11:00 +11°C° 0 mm 7 mps 748 mmHg 60%
12:00 +13°C° 0 mm 6 mps 748 mmHg 57%
13:00 +13°C° 0 mm 6 mps 747 mmHg 54%
14:00 +14°C° 0 mm 5 mps 747 mmHg 52%
15:00 +13°C° 0 mm 4 mps 747 mmHg 54%
16:00 +13°C° 0 mm 3 mps 746 mmHg 57%
17:00 +13°C° 0 mm 2 mps 746 mmHg 60%
18:00 +12°C° 0 mm 2 mps 746 mmHg 60%
19:00 +12°C° 0 mm 1 mps 746 mmHg 61%
20:00 +12°C° 0 mm 1 mps 746 mmHg 62%
21:00 +11°C° 0 mm 1 mps 746 mmHg 62%
22:00 +10°C° 0 mm 0 mps 746 mmHg 61%
23:00 +10°C° 0 mm 0 mps 746 mmHg 61%

Day after tomorrow, 22 October, Thursday

Time Temperature Precipitation Wind Pressure Humidity
00:00 +10°C° 0 mm 0 mps 746 mmHg 62%
01:00 +10°C° 0 mm 1 mps 746 mmHg 62%
02:00 +10°C° 0 mm 1 mps 746 mmHg 63%
03:00 +9°C° 0 mm 1 mps 746 mmHg 62%
04:00 +8°C° 0 mm 0 mps 746 mmHg 62%
05:00 +8°C° 0 mm 0 mps 746 mmHg 62%
06:00 +9°C° 0 mm 0 mps 746 mmHg 60%
07:00 +9°C° 0 mm 0 mps 746 mmHg 59%
08:00 +10°C° 0 mm 0 mps 746 mmHg 57%
09:00 +13°C° 0 mm 1 mps 747 mmHg 51%
10:00 +14°C° 0 mm 1 mps 747 mmHg 45%
11:00 +16°C° 0 mm 2 mps 747 mmHg 38%
12:00 +17°C° 0 mm 2 mps 747 mmHg 36%
13:00 +18°C° 0 mm 2 mps 747 mmHg 34%
14:00 +19°C° 0 mm 2 mps 746 mmHg 31%
15:00 +18°C° 0 mm 1 mps 746 mmHg 35%
16:00 +16°C° 0 mm 1 mps 746 mmHg 38%
17:00 +15°C° 0 mm 1 mps 746 mmHg 41%
18:00 +15°C° 0 mm 1 mps 746 mmHg 42%
19:00 +14°C° 0 mm 1 mps 746 mmHg 44%
20:00 +14°C° 0 mm 1 mps 746 mmHg 45%
21:00 +13°C° 0 mm 1 mps 746 mmHg 46%
22:00 +13°C° 0 mm 1 mps 746 mmHg 46%
23:00 +13°C° 0 mm 2 mps 745 mmHg 46%

23 October, Friday

Time Temperature Precipitation Wind Pressure Humidity
00:00 +12°C° 0 mm 1 mps 745 mmHg 48%
01:00 +12°C° 0 mm 1 mps 745 mmHg 49%
02:00 +12°C° 0 mm 1 mps 745 mmHg 50%
03:00 +11°C° 0 mm 1 mps 744 mmHg 51%
04:00 +10°C° 0 mm 2 mps 744 mmHg 52%
05:00 +10°C° 0 mm 2 mps 744 mmHg 52%
06:00 +10°C° 0 mm 2 mps 744 mmHg 53%
07:00 +10°C° 0 mm 2 mps 743 mmHg 54%
08:00 +10°C° 0 mm 2 mps 743 mmHg 54%
09:00 +13°C° 0 mm 2 mps 743 mmHg 50%
10:00 +14°C° 0 mm 3 mps 743 mmHg 45%
11:00 +17°C° 0 mm 3 mps 743 mmHg 40%
12:00 +17°C° 0 mm 3 mps 742 mmHg 40%
13:00 +18°C° 0 mm 3 mps 742 mmHg 39%
14:00 +18°C° 0 mm 3 mps 742 mmHg 39%
15:00 +17°C° 0 mm 3 mps 741 mmHg 43%
16:00 +16°C° 0 mm 2 mps 741 mmHg 47%
17:00 +15°C° 0 mm 2 mps 741 mmHg 51%
18:00 +15°C° 0 mm 2 mps 741 mmHg 53%
19:00 +14°C° 0 mm 1 mps 741 mmHg 54%
20:00 +14°C° 0 mm 1 mps 741 mmHg 55%
21:00 +14°C° 0 mm 1 mps 741 mmHg 57%
22:00 +13°C° 0 mm 2 mps 741 mmHg 58%
23:00 +13°C° 0 mm 2 mps 741 mmHg 60%

24 October, Saturday

Time Temperature Precipitation Wind Pressure Humidity
00:00 +13°C° 0 mm 2 mps 741 mmHg 63%
01:00 +13°C° 0 mm 2 mps 741 mmHg 66%
02:00 +11°C° 0 mm 3 mps 742 mmHg 68%
03:00 +12°C° 0 mm 2 mps 742 mmHg 72%
04:00 +12°C° 0 mm 2 mps 742 mmHg 76%
05:00 +10°C° 0 mm 2 mps 742 mmHg 80%
06:00 +10°C° 0.3 mm 3 mps 742 mmHg 83%
07:00 +11°C° 0.3 mm 3 mps 742 mmHg 86%
08:00 +11°C° 0.3 mm 3 mps 743 mmHg 89%
09:00 +11°C° 0.6 mm 3 mps 743 mmHg 90%
10:00 +12°C° 0.6 mm 2 mps 743 mmHg 90%
11:00 +12°C° 0.6 mm 2 mps 743 mmHg 91%
12:00 +13°C° 0 mm 2 mps 743 mmHg 87%
13:00 +13°C° 0 mm 3 mps 743 mmHg 84%
14:00 +13°C° 0 mm 3 mps 743 mmHg 80%
15:00 +13°C° 0 mm 3 mps 742 mmHg 83%
16:00 +13°C° 0 mm 3 mps 742 mmHg 86%
17:00 +12°C° 0 mm 3 mps 742 mmHg 89%
18:00 +12°C° 0 mm 3 mps 742 mmHg 89%
19:00 +12°C° 0 mm 3 mps 742 mmHg 90%
20:00 +11°C° 0 mm 3 mps 743 mmHg 90%
21:00 +11°C° 0.2 mm 3 mps 743 mmHg 87%
22:00 +11°C° 0.2 mm 4 mps 743 mmHg 83%
23:00 +11°C° 0.2 mm 4 mps 743 mmHg 80%

25 October, Sunday

Time Temperature Precipitation Wind Pressure Humidity
00:00 +10°C° 0 mm 4 mps 743 mmHg 79%
01:00 +10°C° 0 mm 4 mps 744 mmHg 78%
02:00 +10°C° 0 mm 4 mps 744 mmHg 77%
03:00 +8°C° 0 mm 4 mps 744 mmHg 78%
04:00 +7°C° 0 mm 4 mps 744 mmHg 79%
05:00 +7°C° 0 mm 4 mps 744 mmHg 80%
06:00 +7°C° 0 mm 5 mps 745 mmHg 79%
07:00 +7°C° 0 mm 5 mps 745 mmHg 78%
08:00 +7°C° 0 mm 5 mps 745 mmHg 77%
09:00 +8°C° 0 mm 6 mps 746 mmHg 71%
10:00 +9°C° 0 mm 6 mps 746 mmHg 65%
11:00 +10°C° 0 mm 6 mps 746 mmHg 60%
12:00 +10°C° 0 mm 6 mps 746 mmHg 57%
13:00 +11°C° 0 mm 6 mps 746 mmHg 55%
14:00 +11°C° 0 mm 6 mps 746 mmHg 53%
15:00 +10°C° 0 mm 5 mps 746 mmHg 57%
16:00 +10°C° 0 mm 4 mps 746 mmHg 61%
17:00 +10°C° 0 mm 3 mps 746 mmHg 64%
18:00 +9°C° 0 mm 3 mps 746 mmHg 67%
19:00 +8°C° 0 mm 3 mps 747 mmHg 70%
20:00 +8°C° 0 mm 3 mps 747 mmHg 74%
21:00 +7°C° 0 mm 2 mps 747 mmHg 75%
22:00 +7°C° 0 mm 2 mps 748 mmHg 77%
23:00 +6°C° 0 mm 2 mps 748 mmHg 78%

26 October, Monday

Time Temperature Precipitation Wind Pressure Humidity
00:00 +6°C° 0 mm 2 mps 748 mmHg 79%
01:00 +7°C° 0 mm 1 mps 748 mmHg 80%
02:00 +7°C° 0 mm 1 mps 748 mmHg 81%
03:00 +6°C° 0 mm 1 mps 748 mmHg 83%
04:00 +6°C° 0 mm 1 mps 748 mmHg 84%
05:00 +6°C° 0 mm 1 mps 748 mmHg 85%
06:00 +6°C° 0 mm 1 mps 748 mmHg 84%
07:00 +7°C° 0 mm 1 mps 748 mmHg 83%
08:00 +7°C° 0 mm 1 mps 748 mmHg 81%
09:00 +8°C° 0 mm 1 mps 748 mmHg 75%
10:00 +9°C° 0 mm 0 mps 748 mmHg 68%
11:00 +10°C° 0 mm 0 mps 748 mmHg 62%
12:00 +11°C° 0 mm 0 mps 748 mmHg 59%
13:00 +11°C° 0 mm 0 mps 748 mmHg 56%
14:00 +12°C° 0 mm 0 mps 747 mmHg 53%
15:00 +11°C° 0 mm 0 mps 747 mmHg 56%
16:00 +10°C° 0 mm 0 mps 747 mmHg 58%
17:00 +10°C° 0 mm 0 mps 747 mmHg 61%
18:00 +10°C° 0 mm 1 mps 747 mmHg 63%
19:00 +10°C° 0 mm 1 mps 747 mmHg 65%
20:00 +9°C° 0 mm 1 mps 747 mmHg 67%
21:00 +9°C° 0 mm 1 mps 747 mmHg 68%
22:00 +9°C° 0 mm 1 mps 747 mmHg 70%
23:00 +8°C° 0 mm 1 mps 747 mmHg 71%
Show more